Flag for Guyana Weather past 2 weeks in Linden, Guyana

Now
73 °F

Passing clouds.


Feels Like: 68 °F
Forecast: 74 / 87 °F
Wind: No wind

Location: Georgetown/Cheddi Jagan International Airport

Current Time: Aug 5, 2015 at 7:01:57 AM

Latest Report: Aug 5, 2015 at 6:00 AM


Visibility: 6 mi

Pressure: 29.92 "Hg

Humidity: 100%

Dew point: 73 °F

Location of LindenLocation

Historic Weather in Linden — Graph

°F

Linden temperature yesterday

Maximum temperature yesterday: 91 °F (at 3:00 PM)
Minimum temperature yesterday: 73 °F (at 3:00 AM)
Average temperature yesterday: 82 °F

Past Weeks' High & Low Weather Summary

 TemperatureHumidityPressure
High91 °F (Aug 3, 2:00 PM)100% (Jul 21, 6:00 AM)31.23 "Hg (Jul 21, 6:00 AM)
Low72 °F (Jul 22, 5:00 AM)59% (Jul 31, 5:00 PM)29.80 "Hg (Jul 28, 4:00 PM)
Average80 °F86%29.93 "Hg
* Reported Jul 21 6:00 AM — Aug 5 6:00 AM, Linden, Weather by CustomWeather, © 2015

Note: Actual official high and low records may vary slightly from our data, if they occured in-between our weather recording intervals... More about our weather records

Advertising

Linden weather history for previous 24 hours

 ConditionsComfort  
Time TempWeatherWind HumidityBarometerVisibility
6:00 AM
Wed, Aug 5
73 °FPassing clouds.No wind100%29.92 "Hg6 mi
3:00 AM75 °FPassing clouds.No wind100%29.92 "HgN/A
12:00 AM77 °FClear.18 mph94%29.95 "Hg10 mi
11:00 PM
Tue, Aug 4
77 °FClear.5 mph94%29.95 "Hg10 mi
10:00 PM77 °FPassing clouds.5 mph94%29.95 "HgN/A
9:00 PM77 °FPassing clouds.5 mph94%29.95 "HgN/A
8:00 PM79 °FPassing clouds.7 mph89%29.92 "HgN/A
7:00 PM81 °FPassing clouds.7 mph89%29.89 "HgN/A
6:00 PM82 °FPassing clouds.12 mph84%29.89 "HgN/A
5:00 PM90 °FPassing clouds.14 mph63%29.86 "HgN/A
4:00 PM90 °FPassing clouds.12 mph63%29.86 "HgN/A
3:00 PM91 °FScattered clouds.9 mph59%29.86 "HgN/A
2:00 PM90 °FScattered clouds.12 mph63%29.89 "HgN/A
1:00 PM90 °FPartly sunny.14 mph67%29.89 "HgN/A
12:00 PM88 °FScattered clouds.2 mph70%29.92 "HgN/A
11:00 AM86 °FBroken clouds.5 mph75%29.95 "HgN/A
10:00 AM86 °FScattered clouds.9 mph75%29.95 "HgN/A
9:00 AM84 °FScattered clouds.9 mph79%29.98 "HgN/A
8:00 AM82 °FScattered clouds.5 mph84%29.98 "HgN/A
7:00 AM75 °FPassing clouds.No wind100%29.95 "HgN/A
Weather by CustomWeather, © 2015

See weather overviewHow to use our weather pages